Погода Преображение

Погода Преображение : погода сейчас, прогноз погоды и архив. Всё, что Вы хотите узнать о погоде Преображение!

Хотите узнать прогноз погоды Преображение? Тогда Вам сюда: Погода Преображение

Поиск расширенной информации на нашем сайте:

Другие новости

Новости СМИ2

Главная страница сайта

Новости сайта

02.10.2013

Напоминаем, что на нашем новом сайте вы можете получить высокодетализированные прогнозы погоды по пунктам России, СНГ и мира (включающие важные для авиации метеовеличины, такие как направление и скорость ветра, видимость, явления погоды, количество и форма облачности, нижняя и верхняя граница облачности), а также ознакомиться с разнообразными материалами по авиационной метеорологии и подборкой полезных ссылок на эту тему.

Сайт Метеоцентр.Азия посвящён разработке технологий оптимизации авиаметеорологического обслуживания, включая проектирование и перспективное создание нескольких автоматизированных авиаметеорологических систем:
- система выпуска высокодетальных прогностических карт явлений погоды для нижнего воздушного пространства по России и ближнему зарубежью;
- система верификации прогнозов TAF (выпускаемых синоптиками официальных АМСГ РФ и ближнего зарубежья) и AUTOTAF (выпускаемых сайтом Метеоцентр.Азия) - выявление ошибок, онлайн-сопоставление с фактической погодой METAR, автоматическое внесение коррективов в прогнозы при резком отклонении фактической погоды от прогноза, подсчёт оправдываемости прогнозов по элементам и в целом;
- система обработки, анализа и отображения авиаметеорологической информации для применения провайдерами метеорологической информации.

Рекомендуем: Правильная регулировка пластикового окна.

Погода Преображение - сегодня

Время (UTC), дата Ветер
(°,м/с) 
Видим.   Явления Облачность Т
(°С)
Тd
(°С)
f(%) Тe
(°С)
Pmin
(гПа)
dP
(гПа)
Po
(мм)
O2
(г/м3)
Тmin Tmax R s Состояние
почвы
18 17.01.17 020 (С) 20000 м    ясно 
-6.4 -12.2 63 -10  1027.9  -0.2  767  318           
21 17.01.17 020 (С) 20000 м    ясно 
-7 -12.4 65 -12  1027.1  -0.8  766  318  -7.6      мокрый или
старый снег
50-90% 
00 18.01.17 030 (СВ) 20000 м    4/1 600 м верхняя 
[Cu hum|Ci fib]
-4.9 -9.9 68 -9  1026.3  -0.8  766  315           
03 18.01.17 100 (В) 20000 м    10/1 600 м средняя, верхняя 
[Cu med, cong|Ac trans|Ci fib]
-0.9 -6.5 66 1024.3  -1.9  764  310           
06 18.01.17 110 (В) 20000 м    10/0 средняя 
[Ac und]
-1.1 -6 69 -1  1022.1  -2.2  762  309           
09 18.01.17 тихо ()   4000 м  слаб. снег  10/10 200 м 
[Frnb|Ns]
-2.6 -3.2 96 -3  1022.2  0.1  763  311    -0.9  0.4     
12 18.01.17 050 (СВ) 20000 м  {снег}  10/0 верхняя 
[Cs]
-3 -8.3 67 -3  1022.6  0.4  763  312           
15 18.01.17 360 (С) 20000 м    ясно 
-4.5 -13.7 49 -4  1023.1  0.4  763  314           
18 18.01.17 070 (В) 20000 м    ясно 
-6.1 -14.5 51 -8  1023.8  0.7  764  316           
21 18.01.17 040 (СВ) 20000 м    ясно 
-6.9 -15.5 50 -10  1024.1  0.3  764  317  -6.9    0.2  равномерный
сухой снег
100% 
00 19.01.17 040 (СВ) 20000 м    ясно 
-6.8 -16.1 48 -11  1024.4  0.3  764  317  -7.7         
03 19.01.17 220 (ЮЗ) 20000 м    ясно 
-1.7 -11.1 49 -1  1023.1  -1.2  763  311           
06 19.01.17 190 (Ю) 20000 м    ясно 
-1.7 -11.4 47 -4  1021.4  -1.7  762  310           
09 19.01.17 020 (С) 20000 м    6/0 верхняя 
[Ci fib]
-4.5 -11.7 57 -6  1021.3  0.1  762  313    -1.4       
12 19.01.17 020 (С) 20000 м    6/0 верхняя 
[Ci fib]
-5.5 -23.4 23 -8  1020.6  -0.7  761  315           
15 19.01.17 020 (С) 20000 м    5/0 верхняя 
[Ci fib]
-8.1 -16 53 -13  1020  -0.7  761  317           
18 19.01.17 030 (СВ) 20000 м    5/0 верхняя 
[Ci fib]
-8.3 -16.2 53 -13  1019.1  -0.9  760  317           
21 19.01.17 020 (С) 20000 м    5/0 верхняя 
[Ci fib]
-8.5 -18.4 45 -13  1018.1  -1  759  317  -9.6      мокрый или
старый снег
50-90% 
00 20.01.17 030 (СВ) 20000 м    10/0 верхняя 
[Ci fib]
-7.7 -18.4 42 -10  1018.2  -0.2  760  316  -10.1         
03 20.01.17 120 (ЮВ) 20000 м    10/0 верхняя 
[Ci fib]
-2.6 -13.7 42 -4  1018.3  0.2  760  310           
06 20.01.17 130 (ЮВ) 20000 м    8/0 верхняя 
[Ci fib]
-3.4 -12.9 48 -6  1017.5  -0.9  759  311           
09 20.01.17 010 (С) 20000 м    4/0 верхняя 
[Ci fib]
-4.7 -22.3 24 -4  1019.3  1.8  760  313    -2.6       
12 20.01.17 100 (В) 1{11}  20000 м    ясно 
-6.7 -20.9 31 -6  1020.6  1.3  761  316           
15 20.01.17 040 (СВ) 20000 м    ясно 
-7.6 -20.6 34 -11  1021.9  1.2  762  317           
18 20.01.17 040 (СВ) 20000 м    ясно 
-8.3 -21.4 34 -12  1022.7  0.8  763  319           
Время (UTC), дата Ветер
(°,м/с) 
Видим.   Явления Облачность Т
(°С)
Тd
(°С)
f(%) Тe
(°С)
Pmin
(гПа)
dP
(гПа)
Po
(мм)
O2
(г/м3)
Тmin Tmax R s Состояние
почвы

Для получения пояснительной информации подведите курсор к названию столбца.

ПОГОДА Преображение - архив

Всё, что Вы хотите узнать о погоде Преображение - удобно и подробно!

Выберите нужную дату (начиная с 1 января 2015* года) и нажмите кнопку "Найти".
Будут отображены архивные сводки погоды по пункту Преображение, начиная с указанной даты.


Отображать данные в формате CSV (для использования в таблицах Excel)


Внимание! Наш архив погоды предназначен исключительно для личного некоммерческого использования в познавательных целях. Если Вам необходимы официальные справки о состоянии погоды (для производственных, юридических, коммерческих и т.п. целей), обращайтесь в органы Росгидромета.

*Примечание: данная дата относится к архиву по метеостанциям СССР (Россия, СНГ, Балтия).
Архив по метеостанциям Зарубежной Европы и Азии (кроме Китая) хранится 10 дней, по другим регионам земного шара (Китай, Африка, Америка, Австралия, Океания) - 1 день.

Преображение - район местоположения метеостанции


Название, широта, долгота, высота метеостанции:
Преображение 42.9°ш. 133.9°д. 43 м над ур. моря [Российская Федерация]

Дополнительная информация

В oтличие oт бoльшинства пoгoдных сайтoв мы публикуем пoдрoбную метеoинфoрмацию в детальнoм прoфессиoнальнoм фoрмате.

Характеристики температуры и влажнoсти вoздуха измеряются на высoте 2 м в тени вдали oт зданий и деревьев.
Скoрoсть ветра измеряется на высoте 10 м (на урoвне рoста челoвека скoрoсть ветра ниже в 1.5-2 раза). Если метеoстанция нахoдится в гoрoде или в лесу, тo скoрoсть ветра занижена на 2-4 м/с пo сравнению с oткрытым местoм. Скoрoсть ветра над акватoриями крупных рек и oзёр, а также на вершинах хoлмoв на 2-5 м/с выше, чем в oбычных услoвиях.
Атмoсфернoе давление в разных тoчках местнoсти мoжет значительнo oтличаться oт давления на метеoстанции, в зависимoсти oт услoвий рельефа (при пoдъёме на 10 м давление пoнижается примернo на 1 мм рт.ст.).